When you browse on this site, cookies collect data to enhance your experience and personalize the content and advertising you see.
Visit our Privacy Policy to learn more. By continuing to use the site, you agree to this use of cookies and data.
  • In Austria
  • List of Countries
  • For 7 days
  • Water Temperature
  • Weather Map
  • News
  • Weather Widgets
  • user-avatar
    Login

    Hourly Weather Sydney

    Today, 9 December, Monday

    Time Temperature Precipitation Wind Pressure Humidity
    00:00 +20°C° 0 mm 3 mps 765 mmHg 85%
    01:00 +19°C° 0 mm 3 mps 765 mmHg 86%
    02:00 +20°C° 0 mm 3 mps 764 mmHg 86%
    03:00 +20°C° 0 mm 3 mps 764 mmHg 87%
    04:00 +20°C° 0 mm 3 mps 764 mmHg 87%
    05:00 +21°C° 0.1 mm 4 mps 764 mmHg 83%
    06:00 +22°C° 0.1 mm 4 mps 765 mmHg 79%
    07:00 +23°C° 0.1 mm 4 mps 765 mmHg 75%
    08:00 +26°C° 0 mm 4 mps 764 mmHg 65%
    09:00 +28°C° 0 mm 5 mps 764 mmHg 54%
    10:00 +30°C° 0 mm 4 mps 764 mmHg 51%
    11:00 +32°C° 0 mm 5 mps 763 mmHg 47%
    12:00 +33°C° 0 mm 6 mps 762 mmHg 43%
    13:00 +34°C° 0 mm 7 mps 762 mmHg 39%
    14:00 +33°C° 0 mm 8 mps 761 mmHg 44%
    15:00 +32°C° 0 mm 8 mps 760 mmHg 49%
    16:00 +29°C° 0 mm 7 mps 760 mmHg 55%
    17:00 +27°C° 0 mm 7 mps 760 mmHg 62%
    18:00 +26°C° 0 mm 7 mps 760 mmHg 69%
    19:00 +23°C° 0 mm 7 mps 761 mmHg 76%
    20:00 +23°C° 0 mm 6 mps 761 mmHg 79%
    21:00 +22°C° 0 mm 6 mps 761 mmHg 83%
    22:00 +21°C° 0 mm 4 mps 761 mmHg 84%
    23:00 +21°C° 0 mm 4 mps 761 mmHg 86%

    Tomorrow, 10 December, Tuesday

    Time Temperature Precipitation Wind Pressure Humidity
    00:00 +21°C° 0 mm 3 mps 760 mmHg 87%
    01:00 +20°C° 0 mm 3 mps 760 mmHg 89%
    02:00 +20°C° 0 mm 2 mps 760 mmHg 89%
    03:00 +20°C° 0 mm 2 mps 759 mmHg 89%
    04:00 +19°C° 0 mm 2 mps 759 mmHg 90%
    05:00 +21°C° 0 mm 2 mps 759 mmHg 79%
    06:00 +24°C° 0 mm 1 mps 759 mmHg 69%
    07:00 +26°C° 0 mm 1 mps 759 mmHg 58%
    08:00 +30°C° 0 mm 2 mps 759 mmHg 45%
    09:00 +36°C° 0 mm 2 mps 759 mmHg 32%
    10:00 +40°C° 0 mm 3 mps 758 mmHg 20%
    11:00 +40°C° 0 mm 3 mps 758 mmHg 19%
    12:00 +42°C° 0 mm 4 mps 757 mmHg 18%
    13:00 +43°C° 0 mm 5 mps 757 mmHg 17%
    14:00 +39°C° 0 mm 5 mps 756 mmHg 30%
    15:00 +34°C° 0 mm 6 mps 756 mmHg 42%
    16:00 +30°C° 0 mm 7 mps 756 mmHg 54%
    17:00 +27°C° 0 mm 8 mps 757 mmHg 62%
    18:00 +24°C° 0 mm 8 mps 758 mmHg 69%
    19:00 +22°C° 0 mm 9 mps 758 mmHg 77%
    20:00 +21°C° 0 mm 9 mps 759 mmHg 76%
    21:00 +21°C° 0 mm 8 mps 760 mmHg 75%
    22:00 +20°C° 0 mm 8 mps 761 mmHg 75%
    23:00 +20°C° 0 mm 7 mps 761 mmHg 75%

    Day after tomorrow, 11 December, Wednesday

    Time Temperature Precipitation Wind Pressure Humidity
    00:00 +18°C° 0 mm 7 mps 760 mmHg 76%
    01:00 +17°C° 0 mm 7 mps 760 mmHg 76%
    02:00 +17°C° 0 mm 6 mps 760 mmHg 76%
    03:00 +17°C° 0 mm 6 mps 760 mmHg 75%
    04:00 +17°C° 0 mm 6 mps 760 mmHg 75%
    05:00 +19°C° 0 mm 6 mps 760 mmHg 73%
    06:00 +19°C° 0 mm 5 mps 760 mmHg 71%
    07:00 +20°C° 0 mm 5 mps 761 mmHg 69%
    08:00 +21°C° 0 mm 5 mps 760 mmHg 65%
    09:00 +22°C° 0 mm 5 mps 760 mmHg 62%
    10:00 +23°C° 0 mm 5 mps 760 mmHg 58%
    11:00 +25°C° 0 mm 5 mps 759 mmHg 56%
    12:00 +26°C° 0 mm 5 mps 759 mmHg 54%
    13:00 +26°C° 0 mm 5 mps 758 mmHg 52%
    14:00 +26°C° 0 mm 5 mps 757 mmHg 54%
    15:00 +24°C° 0 mm 6 mps 757 mmHg 57%
    16:00 +24°C° 0 mm 6 mps 756 mmHg 59%
    17:00 +23°C° 0 mm 5 mps 757 mmHg 64%
    18:00 +21°C° 0 mm 4 mps 758 mmHg 69%
    19:00 +20°C° 0 mm 3 mps 758 mmHg 74%
    20:00 +20°C° 0 mm 3 mps 759 mmHg 74%
    21:00 +20°C° 0 mm 4 mps 759 mmHg 74%
    22:00 +20°C° 0 mm 4 mps 760 mmHg 74%
    23:00 +20°C° 0 mm 4 mps 759 mmHg 78%

    12 December, Thursday

    Time Temperature Precipitation Wind Pressure Humidity
    00:00 +19°C° 0 mm 4 mps 759 mmHg 81%
    01:00 +18°C° 0 mm 4 mps 759 mmHg 85%
    02:00 +18°C° 0 mm 4 mps 758 mmHg 84%
    03:00 +18°C° 0 mm 4 mps 758 mmHg 83%
    04:00 +18°C° 0 mm 4 mps 758 mmHg 82%
    05:00 +19°C° 0.1 mm 4 mps 759 mmHg 79%
    06:00 +19°C° 0.1 mm 4 mps 759 mmHg 75%
    07:00 +19°C° 0.1 mm 4 mps 759 mmHg 72%
    08:00 +20°C° 0.1 mm 4 mps 759 mmHg 69%
    09:00 +21°C° 0.1 mm 4 mps 759 mmHg 66%
    10:00 +21°C° 0.1 mm 5 mps 759 mmHg 63%
    11:00 +22°C° 0 mm 5 mps 759 mmHg 60%
    12:00 +23°C° 0 mm 5 mps 758 mmHg 57%
    13:00 +25°C° 0 mm 5 mps 758 mmHg 54%
    14:00 +23°C° 0 mm 5 mps 757 mmHg 56%
    15:00 +22°C° 0 mm 6 mps 757 mmHg 59%
    16:00 +21°C° 0 mm 6 mps 757 mmHg 61%
    17:00 +21°C° 0 mm 6 mps 758 mmHg 65%
    18:00 +20°C° 0 mm 5 mps 759 mmHg 68%
    19:00 +19°C° 0 mm 5 mps 760 mmHg 71%
    20:00 +19°C° 0 mm 4 mps 760 mmHg 72%
    21:00 +19°C° 0 mm 4 mps 761 mmHg 74%
    22:00 +18°C° 0 mm 4 mps 761 mmHg 75%
    23:00 +18°C° 0 mm 4 mps 761 mmHg 74%

    13 December, Friday

    Time Temperature Precipitation Wind Pressure Humidity
    00:00 +18°C° 0 mm 4 mps 761 mmHg 73%
    01:00 +18°C° 0 mm 4 mps 760 mmHg 72%
    02:00 +17°C° 0 mm 3 mps 760 mmHg 74%
    03:00 +17°C° 0 mm 3 mps 760 mmHg 75%
    04:00 +16°C° 0 mm 3 mps 759 mmHg 77%
    05:00 +18°C° 0 mm 2 mps 759 mmHg 72%
    06:00 +19°C° 0 mm 2 mps 759 mmHg 66%
    07:00 +21°C° 0 mm 1 mps 759 mmHg 61%
    08:00 +20°C° 0 mm 2 mps 759 mmHg 60%
    09:00 +21°C° 0 mm 2 mps 759 mmHg 59%
    10:00 +21°C° 0 mm 3 mps 759 mmHg 57%
    11:00 +24°C° 0 mm 3 mps 758 mmHg 54%
    12:00 +25°C° 0 mm 4 mps 758 mmHg 51%
    13:00 +26°C° 0 mm 4 mps 757 mmHg 49%
    14:00 +25°C° 0 mm 5 mps 757 mmHg 51%
    15:00 +25°C° 0 mm 5 mps 756 mmHg 54%
    16:00 +23°C° 0 mm 5 mps 756 mmHg 56%
    17:00 +22°C° 0 mm 5 mps 756 mmHg 61%
    18:00 +21°C° 0 mm 4 mps 757 mmHg 66%
    19:00 +20°C° 0 mm 3 mps 758 mmHg 70%
    20:00 +20°C° 0 mm 3 mps 758 mmHg 72%
    21:00 +20°C° 0 mm 2 mps 758 mmHg 73%
    22:00 +20°C° 0 mm 2 mps 759 mmHg 74%
    23:00 +19°C° 0.1 mm 2 mps 759 mmHg 76%

    14 December, Saturday

    Time Temperature Precipitation Wind Pressure Humidity
    00:00 +19°C° 0.1 mm 2 mps 758 mmHg 78%
    01:00 +19°C° 0.1 mm 2 mps 758 mmHg 80%
    02:00 +19°C° 0.1 mm 2 mps 758 mmHg 81%
    03:00 +20°C° 0.1 mm 1 mps 758 mmHg 82%
    04:00 +20°C° 0.1 mm 1 mps 757 mmHg 83%
    05:00 +21°C° 0 mm 1 mps 757 mmHg 79%
    06:00 +22°C° 0 mm 1 mps 757 mmHg 75%
    07:00 +23°C° 0 mm 1 mps 757 mmHg 71%
    08:00 +24°C° 0 mm 1 mps 757 mmHg 65%
    09:00 +25°C° 0 mm 2 mps 757 mmHg 59%
    10:00 +27°C° 0 mm 2 mps 757 mmHg 53%
    11:00 +27°C° 0 mm 3 mps 757 mmHg 51%
    12:00 +28°C° 0 mm 4 mps 756 mmHg 49%
    13:00 +28°C° 0 mm 5 mps 756 mmHg 47%
    14:00 +28°C° 0 mm 5 mps 756 mmHg 50%
    15:00 +27°C° 0 mm 5 mps 755 mmHg 52%
    16:00 +26°C° 0 mm 6 mps 755 mmHg 55%
    17:00 +25°C° 0 mm 5 mps 755 mmHg 61%
    18:00 +22°C° 0 mm 5 mps 756 mmHg 68%
    19:00 +21°C° 0 mm 4 mps 757 mmHg 74%
    20:00 +20°C° 0 mm 4 mps 757 mmHg 78%
    21:00 +20°C° 0 mm 3 mps 757 mmHg 81%
    22:00 +19°C° 0 mm 2 mps 758 mmHg 85%
    23:00 +19°C° 0 mm 2 mps 758 mmHg 86%
    Show more